星链-37891(STARLINK-37891)

导读

STARLINK-37891(NORAD编号69948)是美国SpaceX公司星链低轨通信星座的组成卫星,属于2026年上半年发射的批次,运行于近地低轨道(LEO)。 该卫星承担全球宽带互联网接入任务,可兼容直连手机与普通用户终端,无需专用硬件即可为偏远地区提供网络服务。截至2026年7月,星链在轨活跃卫星超1万颗,整网健康率超过99.9%,该卫星当前处于正常在轨运行状态,参与星座全球覆盖组网,服务覆盖民用通信、应急联网等场景。

基本信息
目录编号:
69948
目录名称:
STARLINK-37891
国际标识:
2026-157F
轨道中心:
EARTH
卫星名称:
星链-37891
卫星全名:
星链-37891(STARLINK-37891)
卫星状态:
在轨 (已飞行58 天)
发射日期:
2026-07-09 UTC
国别 :
美国 (US)
星等 :
--
轨道信息
数据来源 国际轨道数据
星历时间: 2026-09-04T19:03:00+0800
19小时前
查看轨道信息
半长轴: 6840.87km
偏心率: 0.0001064
轨道倾角: 53.162°
近地点辐角 82.515°
升交点赤经 48.471°
平近点角 277.597°
近地点: 462.005km
远地点: 463.461km
周期: 93.848分钟
每日圈数: 15.343902
详细信息
固有亮度:
5
最大亮度:
2.5
卫星平台:
Starlink V1.0
覆盖范围:
全球
运营商:
太空探索技术公司
运营商所在国:
美国
制造商(研发单位):
太空探索技术公司
制造商所在国:
美国
使用方式:
暂无
卫星简介
Starlink 计划是 SpaceX 推出的全球卫星互联网项目,通过发射低轨道卫星,为全球尤其是偏远地区提供高速、低延迟的互联网服务。自 2019 年起,Starlink 已部署数千颗卫星,旨在缩小全球数字鸿沟,推动互联网普及。该项目还为军事、航空等行业提供通信支持,带来广泛经济效益。
2D轨道图
3D轨道图
轨道高度分析图
轨道倾角分析图
轨道综合分析图
查看轨道综合分析图